Munising, MI

2:06 AM EDT on April 21, 2018 (GMT -0400)
Munising

Weather History for KP53 - November, 2012

Change the Weather History Date:

Friday, November 9, 2012

  Actual Average (KISQ) Record (KISQ)
Temperature  
Mean Temperature 39 °F -  
Max Temperature 45 °F 42 °F 58 °F (1970)
Min Temperature 32 °F 29 °F 13 °F (2017)
Degree Days  
Heating Degree Days 26    
Moisture  
Dew Point 35 °F    
Average Humidity 75    
Maximum Humidity 85    
Minimum Humidity 68    
Precipitation  
Precipitation 0.00 in - - ()
Sea Level Pressure  
Sea Level Pressure 30.14 in    
Wind  
Wind Speed 7 mph (North)    
Max Wind Speed 13 mph    
Max Gust Speed -    
Averages and records for this station are not official NWS values.
T = Trace of Precipitation, MM = Missing Value Source: NWS Daily Summary

Daily Weather History Graph

Daily Weather History Graph

Search for Another Location

Airport or City:

Astronomy

Nov. 09, 2012 Rise Set
Actual Time 7:40 AM EST 5:20 PM EST
Civil Twilight 7:08 AM EST 5:52 PM EST
Nautical Twilight 6:31 AM EST 6:28 PM EST
Astronomical Twilight 5:56 AM EST 7:03 PM EST
Moon 2:22 AM EST (11/9) 2:46 PM EST (11/9)
Length of Visible Light 10h 44m
Length of Day
9h 39m
Waning Crescent, 23% of the Moon is Illuminated
Nov 9
Waning Crescent
Nov 13
New
Nov 20
First Quarter
Nov 28
Full
Dec 6
Last Quarter

Hourly Weather History & Observations

Time (EST) Temp. Windchill Dew Point Humidity Pressure Visibility Wind Dir Wind Speed Gust Speed Precip Events Conditions
12:56 AM 43.0 °F 38.8 °F 33.1 °F 68% 30.04 in - SW 6.9 mph - N/A   Unknown
1:56 AM 43.0 °F 39.5 °F 34.0 °F 71% 30.04 in - West 5.8 mph - N/A   Unknown
2:56 AM 44.1 °F 42.5 °F 36.0 °F 73% 30.06 in - WNW 3.5 mph - N/A   Unknown
3:56 AM 42.1 °F 38.4 °F 35.1 °F 76% 30.07 in - South 5.8 mph - N/A   Unknown
4:56 AM 43.0 °F - 35.1 °F 74% 30.08 in - Calm Calm - N/A   Unknown
5:56 AM 45.0 °F 41.8 °F 37.9 °F 76% 30.10 in - NNW 5.8 mph - N/A   Unknown
6:56 AM 45.0 °F 41.8 °F 37.0 °F 74% 30.10 in - NNW 5.8 mph - N/A   Unknown
8:56 AM 45.0 °F 39.3 °F 37.9 °F 76% 30.12 in - NNE 11.5 mph - N/A   Unknown
9:56 AM 45.0 °F 40.1 °F 37.9 °F 76% 30.14 in - NE 9.2 mph - N/A   Unknown
10:56 AM 45.0 °F 39.7 °F 37.9 °F 76% 30.16 in - NNE 10.4 mph - N/A   Unknown
11:56 AM 44.1 °F 38.1 °F 37.0 °F 76% 30.16 in - NNE 11.5 mph - N/A   Unknown
12:56 PM 44.1 °F 38.6 °F 37.0 °F 76% 30.14 in - NNE 10.4 mph - N/A   Unknown
1:56 PM 43.0 °F 37.7 °F 36.0 °F 76% 30.14 in - NNE 9.2 mph - N/A   Unknown
2:56 PM 43.0 °F 36.4 °F 36.0 °F 76% 30.14 in - North 12.7 mph - N/A   Unknown
3:56 PM 43.0 °F 36.4 °F 35.1 °F 74% 30.15 in - North 12.7 mph - N/A   Unknown
4:56 PM 42.1 °F 35.2 °F 35.1 °F 76% 30.16 in - North 12.7 mph - N/A   Unknown
5:56 PM 42.1 °F 36.1 °F 34.0 °F 73% 30.18 in - North 10.4 mph - N/A   Unknown
6:56 PM 41.0 °F 34.3 °F 34.0 °F 76% 30.19 in - NNE 11.5 mph - N/A   Unknown
7:56 PM 41.0 °F 34.3 °F 33.1 °F 73% 30.19 in - North 11.5 mph - N/A   Unknown
8:56 PM 41.0 °F 36.4 °F 33.1 °F 73% 30.19 in - NNW 6.9 mph - N/A   Unknown
9:56 PM 39.9 °F 35.8 °F 33.1 °F 77% 30.18 in - NNW 5.8 mph - N/A   Unknown
10:56 PM 33.1 °F 27.7 °F 28.9 °F 85% 30.19 in - South 5.8 mph - N/A   Unknown
11:56 PM 32.0 °F 26.4 °F 28.0 °F 85% 30.19 in - South 5.8 mph - N/A   Unknown